Mississauga, Ontario

9:04 PM EST on February 21, 2017 (GMT -0500)
Toronto-Pearson International

Weather History for CYYZ - August, 2013

Change the Weather History Date:

Wednesday, August 28, 2013

  Actual Average Record
Temperature  
Mean Temperature 76 °F -  
Max Temperature 82 °F 71 °F 89 °F (1999)
Min Temperature 70 °F 49 °F 51 °F (2015)
Cooling Degree Days 11    
Growing Degree Days 26 (Base 50)    
Moisture  
Dew Point 69 °F    
Average Humidity 83    
Maximum Humidity 100    
Minimum Humidity 61    
Precipitation  
Precipitation 0.00 in 0.10 in - ()
Sea Level Pressure  
Sea Level Pressure 29.89 in    
Wind  
Wind Speed 5 mph ()    
Max Wind Speed 12 mph    
Max Gust Speed -    
Visibility 10.0 miles    
Events Rain    
Averages and records for this station are not official NWS values.
T = Trace of Precipitation, MM = Missing Value Source: Averaged Metar Reports

Daily Weather History Graph

Daily Weather History Graph

Search for Another Location

Airport or City:

Trip Planner

Search our weather history database for the weather conditions in past years. The results will help you decide how hot, cold, wet, or windy it might be!

Date:

Astronomy

Aug. 28, 2013 Rise Set
Actual Time 6:37 AM EDT 8:00 PM EDT
Civil Twilight 6:08 AM EDT 8:30 PM EDT
Nautical Twilight 5:32 AM EDT 9:06 PM EDT
Astronomical Twilight 4:53 AM EDT 9:44 PM EDT
Moon No Moon Rise 2:42 PM EDT (8/28)
Length of Visible Light 14h 22m
Length of Day
13h 22m
Waning Gibbous, 47% of the Moon is Illuminated
Aug 28
Waning Gibbous
Sep 5
New
Sep 12
First Quarter
Sep 19
Full
Sep 26
Last Quarter

Hourly Weather History & Observations

Time (EDT) Temp. Heat Index Dew Point Humidity Pressure Visibility Wind Dir Wind Speed Gust Speed Precip Events Conditions
12:00 AM 71.6 °F - 69.8 °F 94% 29.88 in 12.0 mi NNE 4.6 mph - N/A   Overcast
1:00 AM 71.6 °F - 69.8 °F 94% 29.88 in 15.0 mi SE 3.5 mph - N/A   Overcast
2:00 AM 71 °F - 70 °F 95% 29.88 in 10 mi NNE 1.2 mph - - Rain Light Rain Showers
2:00 AM 71.6 °F - 69.8 °F 94% 29.88 in 10.0 mi Variable 2.3 mph - N/A Rain Light Rain Showers
2:41 AM 71.6 °F - 69.8 °F 94% 29.86 in 10.0 mi NNW 4.6 mph - N/A   Overcast
3:00 AM 71.6 °F - 69.8 °F 94% 29.86 in 10.0 mi NE 3.5 mph - N/A   Overcast
4:00 AM 71.6 °F - 69.8 °F 94% 29.86 in 10.0 mi SSE 4.6 mph - N/A   Overcast
4:46 AM 69.8 °F - 69.8 °F 100% 29.86 in 1.2 mi SSE 3.5 mph - N/A   Overcast
5:00 AM 69.8 °F - 69.8 °F 100% 29.86 in 2.0 mi South 3.5 mph - N/A   Overcast
5:25 AM 69.8 °F - 69.8 °F 100% 29.86 in 5.0 mi SSE 4.6 mph - N/A   Overcast
6:00 AM 71.6 °F - 68.0 °F 88% 29.86 in 5.0 mi South 2.3 mph - N/A   Mostly Cloudy
7:00 AM 71.6 °F - 68.0 °F 88% 29.87 in 4.0 mi NE 4.6 mph - N/A   Overcast
7:51 AM 71.6 °F - 68.0 °F 88% 29.87 in 6.0 mi NNE 5.8 mph - N/A   Mostly Cloudy
8:00 AM 71 °F - 69 °F 92% 29.87 in 6 mi NNE 5.8 mph - -   Mist
8:00 AM 71.6 °F - 69.8 °F 94% 29.87 in 6.0 mi NNE 6.9 mph - N/A   Overcast
9:00 AM 73.4 °F - 69.8 °F 88% 29.88 in 6.0 mi NE 9.2 mph - N/A   Overcast
9:30 AM 73.4 °F - 69.8 °F 88% 29.88 in 6.0 mi NNE 8.1 mph - N/A   Overcast
10:00 AM 73.4 °F - 69.8 °F 88% 29.88 in 6.0 mi NNE 9.2 mph - N/A   Overcast
11:00 AM 75.2 °F - 69.8 °F 83% 29.89 in 6.0 mi NE 8.1 mph - N/A   Haze
12:00 PM 77.0 °F - 69.8 °F 78% 29.89 in 8.0 mi ENE 6.9 mph - N/A   Overcast
1:00 PM 78.8 °F - 69.8 °F 74% 29.89 in 12.0 mi East 5.8 mph - N/A   Mostly Cloudy
2:00 PM 81 °F - 70 °F 61% 29.89 in 12 mi ESE 9.2 mph - -   Mostly Cloudy
2:00 PM 80.6 °F 83.9 °F 69.8 °F 70% 29.89 in 12.0 mi ESE 11.5 mph - N/A   Mostly Cloudy
3:00 PM 80.6 °F 84.6 °F 71.6 °F 74% 29.89 in 45.0 mi SSE 11.5 mph - N/A   Mostly Cloudy
4:00 PM 82.4 °F 85.4 °F 68.0 °F 62% 29.88 in 15.0 mi ESE 6.9 mph - N/A   Scattered Clouds
5:00 PM 82.4 °F 85.4 °F 68.0 °F 62% 29.90 in 15.0 mi SE 6.9 mph - N/A   Scattered Clouds
6:00 PM 80.6 °F 82.7 °F 66.2 °F 61% 29.91 in 15.0 mi SE 5.8 mph - N/A   Scattered Clouds
7:00 PM 78.8 °F - 66.2 °F 65% 29.92 in 15.0 mi South 4.6 mph - N/A   Partly Cloudy
8:00 PM 78.8 °F - 66.2 °F 65% 29.94 in 15.0 mi Variable 2.3 mph - N/A   Mostly Cloudy
8:22 PM 78.8 °F - 66.2 °F 65% 29.94 in 15.0 mi Calm Calm - N/A Rain Light Rain Showers
8:49 PM 77.0 °F - 68.0 °F 74% 29.94 in 15.0 mi NW 6.9 mph - N/A   Scattered Clouds
9:00 PM 77.0 °F - 68.0 °F 74% 29.95 in 15.0 mi NW 5.8 mph - N/A   Scattered Clouds
10:00 PM 75.2 °F - 69.8 °F 83% 29.97 in 15.0 mi NNE 5.8 mph - N/A   Partly Cloudy
11:00 PM 73.4 °F - 68.0 °F 83% 29.98 in 15.0 mi North 6.9 mph - N/A   Clear